Starlink 11178

operational
NORAD ID: 62465 Int'l Des: 2024-254 Owner: SPXS Country: US Constellation: starlink
LEOCIRCULAR

Starlink 11178について

説明を読み込み中...

リアルタイム位置

3D地球を読み込み中...

次回通過

高度履歴

Altitude vs Time

uPlot chart will show altitude changes over time

軌道要素

1 62465U 24254D 25301.02409775 .00257502 00000-0 19350-2 0 9996
2 62465 42.9999 302.8934 0005244 291.7175 68.3134 15.70998553 48372
Epoch: Oct 28, 2025 • Age: 20 hours

現在のステータス

高度 361.0 km
速度 7.70 km/s
衛星直下点 43.16°N, 38.29°E
打ち上げ日 Dec 31, 2024
運用期間 0.8 years
タイプ internet

技術仕様

分類 Payload
質量 960.00 kg
乾燥質量 910.00 kg
総質量 960.00 kg
長さ 0.30 m
直径 4.10 m
スパン 29.00 m
形状 Box + pan
製造者 SPXS
バスタイプ Starlink V2MD
フェーズステータス In Orbit
所有者/国 SPXS/US

大規模コンステレーション

Loading constellations...